Location: Maccacari
(45.1333°N, 11.1333°E)
Time: 08:39:22
(UTC+00:00)

Terra - Pass Details

Date: 18 September 2020
Orbit: 701 x 703 km, 98.2° (Epoch: 29 October)

Event Time Altitude Azimuth Distance (km) Brightness Sun altitude
Exits shadow 20:18:54 18° 22° (NNE) 1,700 3.9 -30.1°
Drops below altitude 10° 20:20:27 10° 8° (N) 2,182 4.7 -30.3°
Sets 20:22:58 0° 357° (N) 3,105 5.7 -30.6°
